Time,TemperatureF,DewpointF,PressureIn,WindDirection,WindDirectionDegrees,WindSpeedMPH,WindSpeedGustMPH,Humidity,HourlyPrecipIn,Conditions,Clouds,dailyrainin,SoftwareType,DateUTC
2013-02-12 00:02:00,38.1,25.0,29.94,WSW,256,16.0,16.0,59,0.00,,,0.00,weatherlink.com 1.10,2013-02-12 05:02:00,
2013-02-12 00:17:00,38.1,25.0,29.94,West,272,11.0,15.0,59,0.00,,,0.00,weatherlink.com 1.10,2013-02-12 05:17:00,
2013-02-12 00:32:00,38.0,25.0,29.94,West,281,7.0,12.0,60,0.00,,,0.00,weatherlink.com 1.10,2013-02-12 05:32:00,
2013-02-12 00:47:00,37.9,25.0,29.94,West,267,10.0,16.0,61,0.00,,,0.00,weatherlink.com 1.10,2013-02-12 05:47:00,
2013-02-12 01:02:00,37.7,26.0,29.95,West,260,6.0,16.0,64,0.00,,,0.00,weatherlink.com 1.10,2013-02-12 06:02:00,
2013-02-12 01:17:00,37.6,27.0,29.96,WSW,247,8.0,13.0,66,0.00,,,0.00,weatherlink.com 1.10,2013-02-12 06:17:00,
2013-02-12 01:32:00,37.5,27.0,29.95,WNW,287,10.0,14.0,65,0.00,,,0.00,weatherlink.com 1.10,2013-02-12 06:32:00,
2013-02-12 01:47:00,37.4,27.0,29.96,West,276,10.0,14.0,66,0.00,,,0.00,weatherlink.com 1.10,2013-02-12 06:47:00,
2013-02-12 02:02:00,37.3,27.0,29.96,WNW,285,8.0,13.0,67,0.00,,,0.00,weatherlink.com 1.10,2013-02-12 07:02:00,
2013-02-12 02:17:00,37.2,27.0,29.97,West,278,6.0,13.0,67,0.00,,,0.00,weatherlink.com 1.10,2013-02-12 07:17:00,
2013-02-12 02:32:00,37.0,27.0,29.97,WNW,287,8.0,12.0,68,0.00,,,0.00,weatherlink.com 1.10,2013-02-12 07:32:00,
2013-02-12 02:47:00,37.1,27.0,29.98,West,265,10.0,17.0,66,0.00,,,0.00,weatherlink.com 1.10,2013-02-12 07:47:00,
2013-02-12 03:03:00,37.3,26.0,29.97,West,274,10.0,16.0,63,0.00,,,0.00,weatherlink.com 1.10,2013-02-12 08:03:00,
2013-02-12 03:18:00,37.1,26.0,29.97,WNW,288,6.0,19.0,64,0.00,,,0.00,weatherlink.com 1.10,2013-02-12 08:18:00,
2013-02-12 03:33:00,36.6,27.0,29.97,West,273,5.0,9.0,68,0.00,,,0.00,weatherlink.com 1.10,2013-02-12 08:33:00,
2013-02-12 03:48:00,36.5,26.0,29.98,WNW,283,16.0,16.0,67,0.00,,,0.00,weatherlink.com 1.10,2013-02-12 08:48:00,
2013-02-12 04:03:00,36.5,26.0,29.98,WNW,285,14.0,16.0,65,0.00,,,0.00,weatherlink.com 1.10,2013-02-12 09:03:00,
2013-02-12 04:18:00,36.4,26.0,29.98,West,274,10.0,13.0,66,0.00,,,0.00,weatherlink.com 1.10,2013-02-12 09:18:00,
2013-02-12 04:33:00,36.4,26.0,29.99,West,266,10.0,16.0,65,0.00,,,0.00,weatherlink.com 1.10,2013-02-12 09:33:00,
2013-02-12 04:48:00,36.3,25.0,30.00,West,276,6.0,16.0,65,0.00,,,0.00,weatherlink.com 1.10,2013-02-12 09:48:00,
2013-02-12 05:03:00,36.1,26.0,30.00,West,278,12.0,18.0,66,0.00,,,0.00,weatherlink.com 1.10,2013-02-12 10:03:00,
2013-02-12 05:18:00,35.9,25.0,30.00,WNW,284,11.0,16.0,65,0.00,,,0.00,weatherlink.com 1.10,2013-02-12 10:18:00,
2013-02-12 05:33:00,35.7,25.0,30.00,WNW,291,8.0,12.0,65,0.00,,,0.00,weatherlink.com 1.10,2013-02-12 10:33:00,
2013-02-12 05:48:00,35.7,25.0,30.01,West,266,7.0,12.0,66,0.00,,,0.00,weatherlink.com 1.10,2013-02-12 10:48:00,
2013-02-12 06:03:00,35.3,25.0,30.02,West,280,6.0,10.0,66,0.00,,,0.00,weatherlink.com 1.10,2013-02-12 11:03:00,
2013-02-12 06:18:00,35.3,25.0,30.02,West,277,9.0,14.0,66,0.00,,,0.00,weatherlink.com 1.10,2013-02-12 11:18:00,
2013-02-12 06:33:00,34.7,24.0,30.03,WNW,285,6.0,12.0,66,0.00,,,0.00,weatherlink.com 1.10,2013-02-12 11:33:00,
2013-02-12 06:48:00,34.5,25.0,30.03,West,281,8.0,12.0,68,0.00,,,0.00,weatherlink.com 1.10,2013-02-12 11:48:00,
2013-02-12 07:03:00,34.4,24.0,30.04,WNW,284,9.0,16.0,67,0.00,,,0.00,weatherlink.com 1.10,2013-02-12 12:03:00,
2013-02-12 07:18:00,34.2,24.0,30.04,West,269,11.0,15.0,67,0.00,,,0.00,weatherlink.com 1.10,2013-02-12 12:18:00,
2013-02-12 07:33:00,34.2,25.0,30.05,West,273,8.0,15.0,68,0.00,,,0.00,weatherlink.com 1.10,2013-02-12 12:33:00,
2013-02-12 07:48:00,34.1,24.0,30.05,West,274,7.0,16.0,67,0.00,,,0.00,weatherlink.com 1.10,2013-02-12 12:48:00,
2013-02-12 08:03:00,34.1,24.0,30.05,West,274,8.0,16.0,66,0.00,,,0.00,weatherlink.com 1.10,2013-02-12 13:03:00,
2013-02-12 08:18:00,34.0,24.0,30.06,WSW,256,7.0,13.0,67,0.00,,,0.00,weatherlink.com 1.10,2013-02-12 13:18:00,
2013-02-12 08:33:00,33.9,24.0,30.06,West,276,7.0,10.0,67,0.00,,,0.00,weatherlink.com 1.10,2013-02-12 13:33:00,
2013-02-12 08:48:00,34.0,25.0,30.07,WNW,290,6.0,12.0,69,0.00,,,0.00,weatherlink.com 1.10,2013-02-12 13:48:00,
2013-02-12 09:03:00,34.0,25.0,30.07,NW,308,2.0,11.0,69,0.00,,,0.00,weatherlink.com 1.10,2013-02-12 14:03:00,
2013-02-12 09:18:00,33.6,24.0,30.07,West,259,10.0,12.0,69,0.00,,,0.00,weatherlink.com 1.10,2013-02-12 14:18:00,
2013-02-12 09:33:00,33.6,25.0,30.08,WNW,292,8.0,12.0,70,0.00,,,0.00,weatherlink.com 1.10,2013-02-12 14:33:00,
2013-02-12 09:48:00,33.5,24.0,30.09,West,267,6.0,14.0,69,0.00,,,0.00,weatherlink.com 1.10,2013-02-12 14:48:00,
2013-02-12 10:03:00,33.5,24.0,30.09,WSW,257,7.0,13.0,68,0.00,,,0.00,weatherlink.com 1.10,2013-02-12 15:03:00,
2013-02-12 10:18:00,33.5,24.0,30.09,WNW,286,10.0,11.0,69,0.00,,,0.00,weatherlink.com 1.10,2013-02-12 15:18:00,
2013-02-12 10:33:00,33.5,24.0,30.09,WNW,288,5.0,10.0,69,0.00,,,0.00,weatherlink.com 1.10,2013-02-12 15:33:00,
2013-02-12 10:48:00,33.5,24.0,30.09,WSW,245,8.0,13.0,69,0.00,,,0.00,weatherlink.com 1.10,2013-02-12 15:48:00,
2013-02-12 11:03:00,33.6,25.0,30.09,WNW,293,7.0,10.0,70,0.00,,,0.00,weatherlink.com 1.10,2013-02-12 16:03:00,
2013-02-12 11:18:00,33.6,24.0,30.09,West,270,7.0,12.0,68,0.00,,,0.00,weatherlink.com 1.10,2013-02-12 16:18:00,
2013-02-12 11:33:00,33.8,24.0,30.09,WNW,284,7.0,13.0,68,0.00,,,0.00,weatherlink.com 1.10,2013-02-12 16:33:00,
2013-02-12 11:48:00,34.0,25.0,30.08,WNW,287,7.0,10.0,69,0.00,,,0.00,weatherlink.com 1.10,2013-02-12 16:48:00,
2013-02-12 12:04:00,34.3,25.0,30.07,West,269,4.0,10.0,69,0.00,,,0.00,weatherlink.com 1.10,2013-02-12 17:04:00,
2013-02-12 12:19:00,34.6,25.0,30.07,WNW,284,4.0,11.0,69,0.00,,,0.00,weatherlink.com 1.10,2013-02-12 17:19:00,
2013-02-12 12:34:00,34.7,25.0,30.06,West,274,7.0,10.0,69,0.00,,,0.00,weatherlink.com 1.10,2013-02-12 17:34:00,
2013-02-12 12:49:00,35.2,26.0,30.05,NW,308,6.0,10.0,68,0.00,,,0.00,weatherlink.com 1.10,2013-02-12 17:49:00,
2013-02-12 13:04:00,35.3,25.0,30.03,West,278,3.0,8.0,67,0.00,,,0.00,weatherlink.com 1.10,2013-02-12 18:04:00,
2013-02-12 13:19:00,35.5,25.0,30.04,West,278,6.0,8.0,67,0.00,,,0.00,weatherlink.com 1.10,2013-02-12 18:19:00,
2013-02-12 13:34:00,36.1,26.0,30.02,West,280,6.0,13.0,66,0.00,,,0.00,weatherlink.com 1.10,2013-02-12 18:34:00,
2013-02-12 13:49:00,36.2,25.0,30.00,West,274,5.0,10.0,65,0.00,,,0.00,weatherlink.com 1.10,2013-02-12 18:49:00,
2013-02-12 14:04:00,36.6,25.0,30.00,West,270,3.0,8.0,63,0.00,,,0.00,weatherlink.com 1.10,2013-02-12 19:04:00,
2013-02-12 14:19:00,37.7,26.0,29.98,WNW,288,10.0,11.0,63,0.00,,,0.00,weatherlink.com 1.10,2013-02-12 19:19:00,
2013-02-12 14:34:00,37.5,26.0,29.94,WNW,284,6.0,8.0,63,0.00,,,0.00,weatherlink.com 1.10,2013-02-12 19:34:00,
2013-02-12 14:49:00,37.5,25.0,29.94,NW,309,3.0,9.0,61,0.00,,,0.00,weatherlink.com 1.10,2013-02-12 19:49:00,
2013-02-12 15:04:00,38.3,25.0,29.97,West,273,9.0,10.0,58,0.00,,,0.00,weatherlink.com 1.10,2013-02-12 20:04:00,
2013-02-12 15:19:00,39.1,25.0,29.97,West,262,9.0,11.0,58,0.00,,,0.00,weatherlink.com 1.10,2013-02-12 20:19:00,
2013-02-12 15:34:00,39.4,26.0,29.99,West,265,6.0,13.0,59,0.00,,,0.00,weatherlink.com 1.10,2013-02-12 20:34:00,
2013-02-12 15:49:00,40.2,26.0,29.99,WNW,290,4.0,8.0,57,0.00,,,0.00,weatherlink.com 1.10,2013-02-12 20:49:00,
2013-02-12 16:04:00,40.6,26.0,30.00,West,277,8.0,11.0,57,0.00,,,0.00,weatherlink.com 1.10,2013-02-12 21:04:00,
2013-02-12 16:19:00,41.1,26.0,30.00,West,262,5.0,9.0,55,0.00,,,0.00,weatherlink.com 1.10,2013-02-12 21:19:00,
2013-02-12 16:34:00,41.8,26.0,30.00,WNW,288,4.0,8.0,54,0.00,,,0.00,weatherlink.com 1.10,2013-02-12 21:34:00,
2013-02-12 16:49:00,41.4,26.0,30.00,West,273,4.0,9.0,55,0.00,,,0.00,weatherlink.com 1.10,2013-02-12 21:49:00,
2013-02-12 17:04:00,41.8,26.0,30.00,WNW,302,4.0,9.0,54,0.00,,,0.00,weatherlink.com 1.10,2013-02-12 22:04:00,
2013-02-12 17:19:00,41.3,26.0,30.00,WNW,298,5.0,8.0,54,0.00,,,0.00,weatherlink.com 1.10,2013-02-12 22:19:00,
2013-02-12 17:34:00,41.1,26.0,30.00,West,277,6.0,7.0,56,0.00,,,0.00,weatherlink.com 1.10,2013-02-12 22:34:00,
2013-02-12 17:49:00,40.0,27.0,30.00,West,276,1.0,3.0,61,0.00,,,0.00,weatherlink.com 1.10,2013-02-12 22:49:00,
2013-02-12 18:04:00,39.4,27.0,30.01,WNW,290,1.0,2.0,61,0.00,,,0.00,weatherlink.com 1.10,2013-02-12 23:04:00,
2013-02-12 18:19:00,38.3,27.0,30.00,West,267,0.0,1.0,64,0.00,,,0.00,weatherlink.com 1.10,2013-02-12 23:19:00,
2013-02-12 18:34:00,37.4,27.0,30.01,WSW,243,0.0,1.0,67,0.00,,,0.00,weatherlink.com 1.10,2013-02-12 23:34:00,
2013-02-12 18:49:00,36.6,27.0,30.00,WSW,255,0.0,2.0,68,0.00,,,0.00,weatherlink.com 1.10,2013-02-12 23:49:00,
2013-02-12 19:04:00,34.6,28.0,29.99,East,89,4.0,4.0,77,0.00,,,0.00,weatherlink.com 1.10,2013-02-13 00:04:00,
2013-02-12 19:19:00,34.0,28.0,29.99,East,89,2.0,2.0,80,0.00,,,0.00,weatherlink.com 1.10,2013-02-13 00:19:00,
2013-02-12 19:34:00,33.9,27.0,29.98,East,88,0.0,3.0,76,0.00,,,0.00,weatherlink.com 1.10,2013-02-13 00:34:00,
2013-02-12 19:49:00,33.4,27.0,29.97,East,79,0.0,3.0,76,0.00,,,0.00,weatherlink.com 1.10,2013-02-13 00:49:00,
2013-02-12 20:04:00,33.1,26.0,29.98,East,79,0.0,2.0,76,0.00,,,0.00,weatherlink.com 1.10,2013-02-13 01:04:00,
2013-02-12 20:19:00,32.9,27.0,29.97,East,91,1.0,2.0,78,0.00,,,0.00,weatherlink.com 1.10,2013-02-13 01:19:00,
2013-02-12 20:34:00,32.3,26.0,29.97,East,89,1.0,1.0,77,0.00,,,0.00,weatherlink.com 1.10,2013-02-13 01:34:00,
2013-02-12 20:49:00,32.1,26.0,29.96,ENE,77,2.0,3.0,77,0.00,,,0.00,weatherlink.com 1.10,2013-02-13 01:49:00,
2013-02-12 21:04:00,31.8,26.0,29.97,ESE,120,0.0,2.0,78,0.00,,,0.00,weatherlink.com 1.10,2013-02-13 02:04:00,
2013-02-12 21:19:00,31.6,26.0,29.97,ENE,61,0.0,-999.0,79,-99.99,,,0.00,weatherlink.com 1.10,2013-02-13 02:19:00,
2013-02-12 21:34:00,31.0,25.0,29.97,NNW,341,0.0,1.0,79,0.00,,,0.00,weatherlink.com 1.10,2013-02-13 02:34:00,
2013-02-12 21:49:00,30.6,25.0,29.97,ESE,108,0.0,2.0,81,0.00,,,0.00,weatherlink.com 1.10,2013-02-13 02:49:00,
2013-02-12 22:04:00,30.0,25.0,29.97,ENE,68,1.0,2.0,81,0.00,,,0.00,weatherlink.com 1.10,2013-02-13 03:04:00,
2013-02-12 22:19:00,29.8,26.0,29.97,ESE,108,1.0,2.0,84,0.00,,,0.00,weatherlink.com 1.10,2013-02-13 03:19:00,
2013-02-12 22:34:00,29.3,25.0,29.96,East,85,0.0,2.0,84,0.00,,,0.00,weatherlink.com 1.10,2013-02-13 03:34:00,
2013-02-12 22:49:00,28.9,25.0,29.96,North,359,0.0,3.0,84,0.00,,,0.00,weatherlink.com 1.10,2013-02-13 03:49:00,
2013-02-12 23:04:00,28.8,25.0,29.96,ESE,110,0.0,3.0,86,0.00,,,0.00,weatherlink.com 1.10,2013-02-13 04:04:00,
2013-02-12 23:19:00,28.5,25.0,29.95,East,94,0.0,1.0,86,0.00,,,0.00,weatherlink.com 1.10,2013-02-13 04:19:00,
2013-02-12 23:34:00,28.2,25.0,29.95,East,93,0.0,1.0,86,0.00,,,0.00,weatherlink.com 1.10,2013-02-13 04:34:00,
2013-02-12 23:49:00,28.1,25.0,29.95,East,94,1.0,1.0,87,0.00,,,0.00,weatherlink.com 1.10,2013-02-13 04:49:00,